Tracking 20040 objects as of 18-Nov-2019
Live streaming from Space Station
objects crossing your sky now

SL-14 DEB

Track SL-14 DEB now!
10-day predictions


NORAD ID: 26014
Int'l Code: 1991-068Z
Perigee: 1,459.2 km
Apogee: 1,530.6 km
Inclination: 82.7 °
Period: 115.7 minutes
Semi major axis: 7865 km
RCS: 0.0989 m2 (small)
Launch date: September 28, 1991
Source: Commonwealth of Independent States (former USSR) (CIS)
Launch site: PLESETSK MISSILE AND SPACE COMPLEX (PKMTR)

Note: This is SATELLITE DEBRIS
aabbcc
Your satellite tracking list
Your tracking list is empty




NASA's NSSDC Master Catalog

Two Line Element Set (TLE):
1 26014U 91068Z   19321.56045972 +.00000010 +00000-0 -88370-6 0  9995
2 26014 082.7416 343.5842 0045334 049.8374 107.2190 12.44458908912924
Source of the keplerian elements: AFSPC